DL7GAI-7 Weather Reports


time (UTC)temp
C
wind
direction
speed
KPH
gust
KPH
rain 1hr
cm
rain 24hr
cm
rain mn
cm
humidity
%
barometer
mb
20260505041545 8 45 3.2 4.8 0.00 0.00 0.00 96 1011.2
20260505040207 8 0 3.2 8.0 0.00 0.00 0.00 96 1011.3
20260505034903 8 0 3.2 8.0 0.00 0.00 0.00 96 1011.3
20260505033555 8 0 3.2 8.0 0.00 0.00 0.00 95 1011.5
20260505032205 8 0 3.2 8.0 0.00 0.00 0.00 95 1011.5
20260505030830 8 0 3.2 8.0 0.00 0.00 0.00 95 1011.5
20260505025418 8 315 4.8 8.0 0.00 0.00 0.00 96 1011.7
20260505024045 8 315 4.8 8.0 0.00 0.00 0.00 96 1011.7
20260505022715 9 0 3.2 6.4 0.00 0.00 0.00 94 1011.6
20260505021425 9 0 3.2 6.4 0.00 0.00 0.00 94 1011.6
20260505020015 10 315 3.2 11.3 0.00 0.00 0.00 92 1012.0
20260505014709 10 315 3.2 11.3 0.00 0.00 0.00 92 1012.0
20260505013400 11 315 9.7 11.3 0.00 0.00 0.00 91 1012.0
20260505012050 11 315 9.7 11.3 0.00 0.00 0.00 91 1012.0
20260505010715 11 315 9.7 11.3 0.00 0.00 0.00 91 1012.0
20260505005405 12 315 8.0 12.9 0.00 0.00 0.00 87 1012.4
20260505004040 12 315 8.0 12.9 0.00 0.00 0.00 87 1012.4
20260505002600 12 315 8.0 12.9 0.00 0.00 0.00 87 1012.4
20260505001145 12 315 8.0 12.9 0.00 0.00 0.00 87 1012.4
20260504235805 13 270 6.4 12.9 0.00 0.00 0.00 78 1012.7
20260504234349 13 270 6.4 12.9 0.00 0.00 0.00 78 1012.7
20260504233011 13 270 6.4 12.9 0.00 0.00 0.00 78 1012.7
20260504231640 13 270 6.4 12.9 0.00 0.00 0.00 78 1012.7
20260504230329 13 270 6.4 12.9 0.00 0.00 0.00 78 1012.7
20260504225020 13 270 6.4 12.9 0.00 0.00 0.00 78 1012.7
20260504223815 13 270 6.4 12.9 0.00 0.00 0.00 78 1012.7
20260504222449 14 270 6.4 12.9 0.00 0.00 0.00 74 1012.5
20260504221110 14 270 6.4 12.9 0.00 0.00 0.00 74 1012.5
20260504215720 14 270 6.4 12.9 0.00 0.00 0.00 74 1012.5
20260504214440 14 270 6.4 12.9 0.00 0.00 0.00 74 1012.5
20260504213204 14 270 6.4 12.9 0.00 0.00 0.00 74 1012.5
20260504211929 14 270 6.4 12.9 0.00 0.00 0.00 74 1012.5
20260504210558 14 270 6.4 12.9 0.00 0.00 0.00 71 1012.2
20260504205205 14 270 6.4 12.9 0.00 0.00 0.00 71 1012.2
20260504203915 14 270 6.4 12.9 0.00 0.00 0.00 71 1012.2
20260504202615 16 270 6.4 20.9 0.00 0.00 0.00 62 1011.5
20260504201240 16 270 6.4 20.9 0.00 0.00 0.00 62 1011.5
20260504195915 16 270 6.4 20.9 0.00 0.00 0.00 62 1011.5
20260504194659 16 270 6.4 20.9 0.00 0.00 0.00 62 1011.5
20260504193402 18 270 14.5 27.4 0.00 0.00 0.00 52 1011.3
20260504192020 18 270 14.5 27.4 0.00 0.00 0.00 52 1011.3
20260504190700 18 270 14.5 27.4 0.00 0.00 0.00 52 1011.3
20260504185345 18 270 14.5 27.4 0.00 0.00 0.00 52 1011.3
20260504184135 18 270 14.5 27.4 0.00 0.00 0.00 52 1011.3
20260504182900 19 225 11.3 22.5 0.00 0.00 0.00 41 1011.2
20260504181520 19 225 11.3 22.5 0.00 0.00 0.00 41 1011.2
20260504180140 20 270 6.4 11.3 0.00 0.00 0.00 40 1010.7
20260504174825 20 270 6.4 11.3 0.00 0.00 0.00 40 1010.7
20260504173435 20 270 6.4 11.3 0.00 0.00 0.00 40 1010.7
20260504171945 20 270 6.4 11.3 0.00 0.00 0.00 40 1010.7
20260504170635 20 270 6.4 11.3 0.00 0.00 0.00 40 1010.7
20260504150420 21 270 6.4 12.9 0.00 0.00 0.00 39 1010.7
20260504141115 21 270 6.4 12.9 0.00 0.00 0.00 39 1010.7
20260504130435 22 45 8.0 19.3 0.00 0.00 0.00 33 1011.2
20260504110229 18 180 4.8 11.3 0.00 0.00 0.00 50 1013.3
20260504081756 17 135 4.8 9.7 0.00 0.00 0.00 60 1014.3
20260504080405 16 135 3.2 8.0 0.00 0.00 0.00 65 1014.5
20260504050504 9 315 3.2 9.7 0.00 0.00 0.00 90 1015.9
20260504045120 9 315 3.2 9.7 0.00 0.00 0.00 90 1015.9
20260504043735 9 315 3.2 9.7 0.00 0.00 0.00 90 1015.9
20260504042425 8 0 3.2 6.4 0.00 0.00 0.00 90 1016.0